Weather History for Clinton, MO

Change the Weather History Date:

Monday, February 4, 2013

  Actual Average (KSZL) Record (KSZL)
Temperature  
Mean Temperature 42 °F -  
Max Temperature 55 °F 41 °F 70 °F (2008)
Min Temperature 28 °F 23 °F -2 °F (2011)
Degree Days  
Heating Degree Days 24    
Moisture  
Dew Point 30 °F    
Average Humidity 62    
Maximum Humidity 93    
Minimum Humidity 41    
Precipitation  
Precipitation 0.00 in - - ()
Sea Level Pressure  
Sea Level Pressure 29.90 in    
Wind  
Wind Speed 8 mph (NW)    
Max Wind Speed 15 mph    
Max Gust Speed 18 mph    
Visibility 10 miles    
Events      
Averages and records for this station are not official NWS values.
T = Trace of Precipitation, MM = Missing Value Source: NWS Daily Summary

Daily Weather History Graph

Daily Weather History Graph

Search for Another Location

Airport:

Trip Planner

Search our weather history database for the weather conditions in past years. The results will help you decide how hot, cold, wet, or windy it might be!

Date:

Astronomy

Feb. 04, 2013 Rise Set
Actual Time 7:16 AM CST 5:41 PM CST
Civil Twilight 6:49 AM CST 6:08 PM CST
Nautical Twilight 6:17 AM CST 6:40 PM CST
Astronomical Twilight 5:46 AM CST 7:11 PM CST
Moon 1:52 AM CST (2/4) 12:06 PM CST (2/4)
Length of Visible Light 11h 19m
Length of Day
10h 24m
Last Quarter, 37% of the Moon is Illuminated
Feb 4
Last Quarter
Feb 10
New
Feb 17
First Quarter
Feb 25
Full
Mar 4
Last Quarter

Hourly Weather History & Observations

Time (CST) Temp. Windchill Dew Point Humidity Pressure Visibility Wind Dir Wind Speed Gust Speed Precip Events Conditions
12:15 AM 44.6 °F 40.2 °F 28.4 °F 53% 29.90 in 10.0 mi SSW 8.1 mph - N/A   Clear
12:35 AM 46.4 °F 41.5 °F 28.4 °F 50% 29.89 in 10.0 mi SSW 10.4 mph - N/A   Clear
12:55 AM 46.4 °F 41.9 °F 28.4 °F 50% 29.88 in 10.0 mi SSW 9.2 mph - N/A   Clear
1:15 AM 46.4 °F 41.9 °F 28.4 °F 50% 29.87 in 10.0 mi SSW 9.2 mph - N/A   Clear
1:55 AM 46.4 °F 41.5 °F 28.4 °F 50% 29.85 in 10.0 mi SSW 10.4 mph - N/A   Clear
2:15 AM 46.4 °F 41.9 °F 28.4 °F 50% 29.84 in 10.0 mi SSW 9.2 mph - N/A   Clear
2:35 AM 46.4 °F 42.4 °F 28.4 °F 50% 29.84 in 10.0 mi SSW 8.1 mph - N/A   Clear
2:55 AM 48.2 °F - 28.4 °F 46% 29.83 in 10.0 mi SSW 6.9 mph - N/A   Clear
3:15 AM 48.2 °F - 28.4 °F 46% 29.83 in 10.0 mi South 8.1 mph - N/A   Clear
4:55 AM 48.2 °F - 30.2 °F 50% 29.80 in 10.0 mi SSW 8.1 mph - N/A   Clear
5:15 AM 48.2 °F - 30.2 °F 50% 29.80 in 10.0 mi SSW 3.5 mph - N/A   Partly Cloudy
5:35 AM 48.2 °F - 30.2 °F 50% 29.80 in 10.0 mi SW 4.6 mph - N/A   Mostly Cloudy
5:55 AM 48.2 °F - 30.2 °F 50% 29.80 in 10.0 mi Calm Calm - N/A   Mostly Cloudy
6:15 AM 46.4 °F 42.9 °F 32.0 °F 57% 29.83 in 10.0 mi WNW 6.9 mph - N/A   Mostly Cloudy
6:35 AM 46.4 °F - 32.0 °F 57% 29.84 in 10.0 mi Calm Calm - N/A   Mostly Cloudy
6:55 AM 44.6 °F - 32.0 °F 61% 29.83 in 10.0 mi Calm Calm - N/A   Mostly Cloudy
7:15 AM 42.8 °F - 30.2 °F 61% 29.84 in 10.0 mi Calm Calm - N/A   Partly Cloudy
7:35 AM 44.6 °F - 30.2 °F 57% 29.84 in 10.0 mi Calm Calm - N/A   Clear
7:55 AM 42.8 °F 41.1 °F 30.2 °F 61% 29.84 in 10.0 mi WSW 3.5 mph - N/A   Clear
8:15 AM 44.6 °F 41.4 °F 32.0 °F 61% 29.85 in 10.0 mi WSW 5.8 mph - N/A   Clear
8:35 AM 46.4 °F 43.5 °F 32.0 °F 57% 29.86 in 10.0 mi SW 5.8 mph - N/A   Clear
8:55 AM 48.2 °F - 32.0 °F 54% 29.86 in 10.0 mi WSW 5.8 mph - N/A   Clear
9:15 AM 50.0 °F - 32.0 °F 50% 29.86 in 10.0 mi WSW 8.1 mph - N/A   Clear
9:35 AM 51.8 °F - 32.0 °F 47% 29.86 in 10.0 mi West 10.4 mph - N/A   Clear
9:55 AM 53.6 °F - 33.8 °F 47% 29.86 in 10.0 mi WSW 11.5 mph - N/A   Clear
10:15 AM 53.6 °F - 32.0 °F 44% 29.86 in 10.0 mi West 10.4 mph - N/A   Clear
10:35 AM 53.6 °F - 32.0 °F 44% 29.86 in 10.0 mi West 9.2 mph - N/A   Clear
10:55 AM 55.4 °F - 32.0 °F 41% 29.87 in 10.0 mi NW 10.4 mph - N/A   Clear
11:15 AM 55.4 °F - 32.0 °F 41% 29.87 in 10.0 mi NNW 10.4 mph - N/A   Clear
11:35 AM 53.6 °F - 32.0 °F 44% 29.87 in 10.0 mi NW 5.8 mph - N/A   Clear
11:55 AM 53.6 °F - 32.0 °F 44% 29.88 in 10.0 mi NNW 9.2 mph - N/A   Clear
12:15 PM 55.4 °F - 32.0 °F 41% 29.88 in 10.0 mi NNW 11.5 mph 16.1 mph N/A   Clear
12:35 PM 53.6 °F - 32.0 °F 44% 29.88 in 9.0 mi NNW 10.4 mph - N/A   Clear
12:55 PM 53.6 °F - 32.0 °F 44% 29.88 in 9.0 mi North 11.5 mph 18.4 mph N/A   Clear
1:15 PM 53.6 °F - 32.0 °F 44% 29.88 in 10.0 mi North 12.7 mph 16.1 mph N/A   Clear
1:35 PM 53.6 °F - 32.0 °F 44% 29.88 in 9.0 mi NNE 13.8 mph - N/A   Clear
1:55 PM 53.6 °F - 32.0 °F 44% 29.88 in 9.0 mi North 10.4 mph - N/A   Clear
2:15 PM 53.6 °F - 32.0 °F 44% 29.87 in 10.0 mi North 11.5 mph - N/A   Clear
2:35 PM 53.6 °F - 32.0 °F 44% 29.88 in 9.0 mi NNW 15.0 mph - N/A   Clear
2:55 PM 51.8 °F - 33.8 °F 50% 29.88 in 10.0 mi NNW 12.7 mph 18.4 mph N/A   Clear
3:15 PM 51.8 °F - 32.0 °F 47% 29.88 in 10.0 mi NNW 10.4 mph - N/A   Clear
3:35 PM 51.8 °F - 33.8 °F 50% 29.89 in 10.0 mi North 12.7 mph - N/A   Clear
3:55 PM 50.0 °F - 32.0 °F 50% 29.89 in 10.0 mi North 10.4 mph - N/A   Clear
4:15 PM 48.2 °F - 33.8 °F 58% 29.90 in 10.0 mi NNE 11.5 mph - N/A   Clear
4:35 PM 46.4 °F 40.4 °F 32.0 °F 57% 29.90 in 10.0 mi North 13.8 mph - N/A   Clear
4:55 PM 42.8 °F 35.4 °F 32.0 °F 66% 29.92 in 10.0 mi North 15.0 mph - N/A   Clear
5:15 PM 41.0 °F 33.1 °F 32.0 °F 70% 29.94 in 9.0 mi North 15.0 mph - N/A   Clear
5:35 PM 39.2 °F 32.5 °F 32.0 °F 75% 29.94 in 9.0 mi North 10.4 mph - N/A   Clear
5:55 PM 37.4 °F 31.4 °F 32.0 °F 81% 29.94 in 9.0 mi North 8.1 mph - N/A   Clear
6:15 PM 35.6 °F 29.2 °F 30.2 °F 81% 29.95 in 10.0 mi North 8.1 mph - N/A   Clear
6:35 PM 35.6 °F 29.2 °F 30.2 °F 81% 29.96 in 10.0 mi North 8.1 mph - N/A   Clear
6:55 PM 33.8 °F 29.6 °F 30.2 °F 87% 29.96 in 10.0 mi NE 4.6 mph - N/A   Clear
7:15 PM 33.8 °F 27.0 °F 30.2 °F 87% 29.97 in 10.0 mi NNE 8.1 mph - N/A   Clear
7:35 PM 32.0 °F 24.8 °F 28.4 °F 87% 29.98 in 10.0 mi NNE 8.1 mph - N/A   Clear
7:55 PM 32.0 °F 26.4 °F 28.4 °F 87% 29.98 in 10.0 mi NNE 5.8 mph - N/A   Clear
8:15 PM 32.0 °F 26.4 °F 28.4 °F 87% 29.99 in 10.0 mi North 5.8 mph - N/A   Clear
8:35 PM 32.0 °F - 28.4 °F 87% 29.98 in 10.0 mi Calm Calm - N/A   Clear
8:55 PM 30.2 °F 24.3 °F 28.4 °F 93% 29.99 in 9.0 mi North 5.8 mph - N/A   Clear
9:15 PM 30.2 °F - 28.4 °F 93% 29.98 in 9.0 mi Calm Calm - N/A   Clear
9:35 PM 30.2 °F - 28.4 °F 93% 29.99 in 8.0 mi Calm Calm - N/A   Clear
9:55 PM 30.2 °F - 28.4 °F 93% 30.00 in 8.0 mi Calm Calm - N/A   Clear
10:15 PM 30.2 °F - 26.6 °F 86% 30.00 in 8.0 mi Calm Calm - N/A   Clear
10:35 PM 30.2 °F - 26.6 °F 86% 30.00 in 8.0 mi Calm Calm - N/A   Clear
10:55 PM 28.4 °F - 26.6 °F 93% 29.99 in 8.0 mi Calm Calm - N/A   Clear
11:15 PM 28.4 °F - 26.6 °F 93% 29.99 in 7.0 mi Calm Calm - N/A   Clear
11:35 PM 28.4 °F - 26.6 °F 93% 29.98 in 6.0 mi Calm Calm - N/A   Clear
11:55 PM 28.4 °F - 26.6 °F 93% 29.98 in 6.0 mi Calm Calm - N/A   Clear